Torna al catalogo

STARLINK-37535

AttivoComunicazioniVLEO
NORAD 69465·PAYLOAD·🇺🇸 United States

Lanciato Jun 8, 2026 da Cape Canaveral Space Force Station

Loading…

Prossimi Passaggi (prossime 24 ore)

TLE

AggiornatoSource: CelesTrak SupGP

Epoca: Sep 15, 2026, 03:54 UTC

1 69465C 26127Y   26258.16298611 -.00027193  00000+0 -80345-3 0  2589
2 69465  53.1570 190.7790 0001321  83.3999 183.3008 15.34403585    16

Traccia STARLINK-37535 in tempo reale con AllMySat

Download on the App Store